Retour au catalogue

THORAD AGENA D DEB

ActifUNKNOWN
NORAD 4607·DEBRIS·🇺🇸 United States

Lancé Apr 8, 1970 depuis Vandenberg Space Force Base

Loading…

Prochains Passages (prochaines 24 heures)

TLE

FraisSource: Space-Track

Époque: Sep 14, 2026, 15:49 UTC

1 04607U 70025K   26257.65934209  .00000054  00000-0  39836-3 0  9992
2 04607 100.1984 152.5877 0615159 351.8041  33.4558 12.31259449532307

Suivez THORAD AGENA D DEB en temps réel avec AllMySat

Download on the App Store